TimeCST,TemperatureF,Dew PointF,Humidity,Sea Level PressureIn,VisibilityMPH,Wind Direction,Wind SpeedMPH,Gust SpeedMPH,PrecipitationIn,Events,Conditions,WindDirDegrees,DateUTC
12:15 AM,30.0,26.4,86,30.34,10.0,WNW,5.8,-,N/A,,Clear,300,2013-01-06 06:15:00
12:35 AM,29.5,26.6,89,30.34,10.0,NW,5.8,-,N/A,,Clear,310,2013-01-06 06:35:00
12:55 AM,30.0,27.1,89,30.34,10.0,NW,5.8,-,N/A,,Clear,320,2013-01-06 06:55:00
1:15 AM,30.4,26.6,86,30.34,10.0,NW,6.9,-,N/A,,Clear,310,2013-01-06 07:15:00
1:35 AM,29.8,26.6,88,30.34,10.0,NW,5.8,-,N/A,,Clear,310,2013-01-06 07:35:00
1:55 AM,29.5,26.2,88,30.34,10.0,NW,3.5,-,N/A,,Clear,320,2013-01-06 07:55:00
2:15 AM,29.5,26.1,87,30.35,10.0,NNW,3.5,-,N/A,,Clear,340,2013-01-06 08:15:00
2:35 AM,29.3,25.5,86,30.36,10.0,Calm,Calm,-,N/A,,Clear,0,2013-01-06 08:35:00
2:55 AM,30.2,27.0,88,30.36,10.0,NW,4.6,-,N/A,,Clear,320,2013-01-06 08:55:00
3:15 AM,30.7,26.6,85,30.36,10.0,NNW,4.6,-,N/A,,Clear,330,2013-01-06 09:15:00
3:35 AM,29.8,26.8,88,30.36,10.0,NW,4.6,-,N/A,,Clear,320,2013-01-06 09:35:00
3:55 AM,30.2,27.0,88,30.36,10.0,NW,6.9,-,N/A,,Clear,320,2013-01-06 09:55:00
4:15 AM,29.5,26.4,88,30.36,10.0,NW,4.6,-,N/A,,Clear,310,2013-01-06 10:15:00
4:35 AM,28.8,26.1,90,30.36,10.0,WNW,8.1,-,N/A,,Clear,300,2013-01-06 10:35:00
4:55 AM,28.4,26.1,91,30.36,10.0,NW,5.8,-,N/A,,Clear,310,2013-01-06 10:55:00
5:15 AM,28.8,26.2,90,30.37,10.0,NW,8.1,-,N/A,,Clear,310,2013-01-06 11:15:00
5:35 AM,28.2,26.1,92,30.36,10.0,NW,8.1,-,N/A,,Clear,310,2013-01-06 11:35:00
5:55 AM,26.6,25.2,94,30.37,10.0,NW,5.8,-,N/A,,Clear,310,2013-01-06 11:55:00
6:15 AM,28.4,26.2,92,30.37,10.0,NNW,5.8,-,N/A,,Clear,330,2013-01-06 12:15:00
6:35 AM,29.3,26.4,89,30.38,10.0,NNW,8.1,-,N/A,,Clear,330,2013-01-06 12:35:00
6:55 AM,28.9,26.1,89,30.38,10.0,NNW,5.8,-,N/A,,Clear,330,2013-01-06 12:55:00
7:15 AM,28.2,25.7,90,30.38,10.0,NNW,3.5,-,N/A,,Clear,330,2013-01-06 13:15:00
7:35 AM,25.7,23.9,93,30.39,10.0,NW,3.5,-,N/A,,Clear,320,2013-01-06 13:35:00
7:55 AM,24.6,23.2,94,30.40,10.0,NW,3.5,-,N/A,,Clear,320,2013-01-06 13:55:00
8:15 AM,25.3,24.3,96,30.40,10.0,NW,4.6,-,N/A,,Clear,310,2013-01-06 14:15:00
8:35 AM,27.5,26.4,96,30.41,10.0,WNW,4.6,-,N/A,,Clear,290,2013-01-06 14:35:00
9:15 AM,31.5,28.6,89,30.43,10.0,WNW,3.5,-,N/A,,Clear,300,2013-01-06 15:15:00
9:35 AM,32.4,29.3,88,30.43,10.0,NW,4.6,-,N/A,,Clear,310,2013-01-06 15:35:00
9:55 AM,36.0,30.6,81,30.43,10.0,NW,5.8,-,N/A,,Clear,320,2013-01-06 15:55:00
10:15 AM,38.5,30.4,73,30.44,10.0,NW,3.5,-,N/A,,Clear,310,2013-01-06 16:15:00
10:35 AM,39.4,31.8,74,30.44,10.0,Calm,Calm,-,N/A,,Clear,0,2013-01-06 16:35:00
11:15 AM,42.6,30.6,62,30.43,10.0,Calm,Calm,-,N/A,,Clear,0,2013-01-06 17:15:00
11:35 AM,43.7,29.3,57,30.43,10.0,Calm,Calm,-,N/A,,Clear,0,2013-01-06 17:35:00
11:55 AM,45.7,29.5,53,30.41,10.0,Calm,Calm,-,N/A,,Clear,0,2013-01-06 17:55:00
12:15 PM,46.6,29.1,51,30.40,10.0,West,3.5,-,N/A,,Clear,260,2013-01-06 18:15:00
12:55 PM,48.2,28.9,47,30.38,10.0,Calm,Calm,-,N/A,,Clear,0,2013-01-06 18:55:00
1:15 PM,49.8,29.5,46,30.36,10.0,Calm,Calm,-,N/A,,Clear,0,2013-01-06 19:15:00
1:35 PM,49.8,28.9,45,30.36,10.0,Calm,Calm,-,N/A,,Clear,0,2013-01-06 19:35:00
1:55 PM,50.4,29.3,44,30.35,10.0,NW,3.5,-,N/A,,Clear,310,2013-01-06 19:55:00
2:15 PM,50.7,28.9,43,30.35,10.0,Calm,Calm,-,N/A,,Clear,0,2013-01-06 20:15:00
2:35 PM,50.9,28.4,42,30.34,10.0,Calm,Calm,-,N/A,,Clear,0,2013-01-06 20:35:00
2:55 PM,52.2,29.3,41,30.33,10.0,Calm,Calm,-,N/A,,Clear,0,2013-01-06 20:55:00
3:15 PM,51.8,28.4,41,30.33,10.0,Calm,Calm,-,N/A,,Clear,0,2013-01-06 21:15:00
3:35 PM,51.6,27.9,40,30.33,10.0,Calm,Calm,-,N/A,,Clear,0,2013-01-06 21:35:00
4:15 PM,51.8,28.2,40,30.32,10.0,Calm,Calm,-,N/A,,Clear,0,2013-01-06 22:15:00
4:35 PM,51.1,28.9,43,30.33,10.0,ESE,4.6,-,N/A,,Clear,120,2013-01-06 22:35:00
5:15 PM,49.6,28.4,44,30.32,10.0,SSE,5.8,-,N/A,,Clear,150,2013-01-06 23:15:00
5:35 PM,48.4,27.9,45,30.32,10.0,SE,4.6,-,N/A,,Clear,140,2013-01-06 23:35:00
5:55 PM,46.4,27.9,48,30.32,10.0,SE,4.6,-,N/A,,Clear,140,2013-01-06 23:55:00
6:15 PM,45.5,28.4,51,30.31,10.0,SE,4.6,-,N/A,,Clear,140,2013-01-07 00:15:00
6:55 PM,43.3,28.2,55,30.31,10.0,SE,4.6,-,N/A,,Clear,140,2013-01-07 00:55:00
7:15 PM,41.9,28.2,58,30.32,10.0,SSE,4.6,-,N/A,,Clear,150,2013-01-07 01:15:00
7:35 PM,39.0,28.2,65,30.32,10.0,SSE,5.8,-,N/A,,Clear,160,2013-01-07 01:35:00
7:55 PM,37.9,28.4,69,30.32,10.0,SSE,4.6,-,N/A,,Clear,160,2013-01-07 01:55:00
8:15 PM,37.2,27.9,69,30.32,10.0,South,3.5,-,N/A,,Clear,180,2013-01-07 02:15:00
8:35 PM,32.5,26.8,79,30.32,10.0,Calm,Calm,-,N/A,,Clear,0,2013-01-07 02:35:00
8:55 PM,33.3,27.3,79,30.31,10.0,South,3.5,-,N/A,,Clear,170,2013-01-07 02:55:00
9:15 PM,33.4,27.1,78,30.31,10.0,South,5.8,-,N/A,,Clear,170,2013-01-07 03:15:00
9:35 PM,35.8,27.5,72,30.31,10.0,South,5.8,-,N/A,,Clear,180,2013-01-07 03:35:00
9:55 PM,31.5,25.9,80,30.31,10.0,South,3.5,-,N/A,,Clear,180,2013-01-07 03:55:00
10:15 PM,31.5,26.2,81,30.31,10.0,South,3.5,-,N/A,,Clear,170,2013-01-07 04:15:00
10:35 PM,34.2,27.1,75,30.30,10.0,South,5.8,-,N/A,,Clear,170,2013-01-07 04:35:00
10:55 PM,34.2,26.6,74,30.30,10.0,South,5.8,-,N/A,,Clear,180,2013-01-07 04:55:00
11:35 PM,34.7,26.6,72,30.30,10.0,South,5.8,-,N/A,,Clear,180,2013-01-07 05:35:00
11:55 PM,34.9,27.1,73,30.29,10.0,South,6.9,-,N/A,,Clear,170,2013-01-07 05:55:00